Palm Springs, CA

5:21 PM PDT on June 24, 2017 (GMT -0700)
Palm Springs International

Weather History for KPSP - December, 2013

Change the Weather History Date:

Sunday, December 29, 2013

  Actual Average Record
Temperature  
Mean Temperature 61 °F 56 °F  
Max Temperature 74 °F 67 °F 90 °F (1980)
Min Temperature 48 °F 45 °F 24 °F (1954)
Degree Days  
Heating Degree Days 4 9  
Month to date heating degree days 205 272  
Since 1 July heating degree days 266 368  
Cooling Degree Days 0 0  
Month to date cooling degree days 4 0  
Year to date cooling degree days 4510 4137  
Growing Degree Days 12 (Base 50)    
Moisture  
Dew Point 22 °F    
Average Humidity 23    
Maximum Humidity 26    
Minimum Humidity 19    
Precipitation  
Precipitation 0.00 in 0.04 in 0.82 in (1931)
Month to date precipitation T 0.78  
Year to date precipitation 2.23 5.64  
Since 1 July precipitation 1.26  
Snow  
Snow 0.00 in - - ()
Month to date snowfall 0.0  
Year to date snowfall 0.0  
Snow Depth 0.00 in    
Sea Level Pressure  
Sea Level Pressure 30.12 in    
Wind  
Wind Speed 8 mph (NNW)    
Max Wind Speed 24 mph    
Max Gust Speed 30 mph    
Visibility 10 miles    
Events      
T = Trace of Precipitation, MM = Missing Value Source: NWS Daily Summary

Daily Weather History Graph

Daily Weather History Graph

Search for Another Location

Airport or City:

Trip Planner

Search our weather history database for the weather conditions in past years. The results will help you decide how hot, cold, wet, or windy it might be!

Date:

Astronomy

Dec. 29, 2013 Rise Set
Actual Time 6:50 AM PST 4:46 PM PST
Civil Twilight 6:22 AM PST 5:13 PM PST
Nautical Twilight 5:51 AM PST 5:45 PM PST
Astronomical Twilight 5:21 AM PST 6:15 PM PST
Moon 3:42 AM PST (12/29) 2:25 PM PST (12/29)
Length of Visible Light 10h 51m
Length of Day
9h 55m
Waning Crescent, 10% of the Moon is Illuminated
Dec 29
Waning Crescent
Jan 1
New
Jan 7
First Quarter
Jan 15
Full
Jan 23
Last Quarter

Hourly Weather History & Observations

Time (PST) Temp. Dew Point Humidity Pressure Visibility Wind Dir Wind Speed Gust Speed Precip Events Conditions
12:53 AM 51.1 °F 15.1 °F 24% 30.01 in 10.0 mi Variable 3.5 mph - N/A   Clear
1:53 AM 51.1 °F 17.1 °F 26% 30.02 in 10.0 mi NNW 9.2 mph - N/A   Clear
2:53 AM 55.9 °F 18.0 °F 23% 30.03 in 10.0 mi WSW 4.6 mph - N/A   Clear
3:53 AM 66.9 °F 24.1 °F 20% 30.03 in 10.0 mi North 15.0 mph 24.2 mph N/A   Clear
4:53 AM 66.9 °F 23.0 °F 19% 30.05 in 10.0 mi NE 9.2 mph 18.4 mph N/A   Clear
5:53 AM 66.9 °F 23.0 °F 19% 30.09 in 10.0 mi Calm Calm - N/A   Clear
6:53 AM 64.9 °F 21.9 °F 19% 30.11 in 10.0 mi Variable 3.5 mph 17.3 mph N/A   Clear
7:53 AM 66.9 °F 23.0 °F 19% 30.13 in 10.0 mi Variable 4.6 mph - N/A   Clear
8:53 AM 68.0 °F 24.1 °F 19% 30.14 in 10.0 mi North 12.7 mph - N/A   Clear
9:53 AM 70.0 °F 26.1 °F 19% 30.16 in 10.0 mi North 6.9 mph - N/A   Clear
10:53 AM 72.0 °F 27.0 °F 19% 30.17 in 10.0 mi North 15.0 mph 29.9 mph N/A   Clear
11:53 AM 72.0 °F 28.0 °F 20% 30.14 in 10.0 mi North 12.7 mph 24.2 mph N/A   Clear
12:53 PM 73.0 °F 28.9 °F 20% 30.13 in 10.0 mi NE 5.8 mph - N/A   Clear
1:53 PM 72.0 °F 28.0 °F 20% 30.13 in 10.0 mi NNE 12.7 mph - N/A   Clear
2:53 PM 72.0 °F 28.0 °F 20% 30.13 in 10.0 mi Variable 3.5 mph - N/A   Clear
3:53 PM 70.0 °F 27.0 °F 20% 30.13 in 10.0 mi South 5.8 mph - N/A   Clear
4:53 PM 66.9 °F 23.0 °F 19% 30.14 in 10.0 mi Variable 3.5 mph - N/A   Clear
5:53 PM 64.9 °F 23.0 °F 20% 30.16 in 10.0 mi Calm Calm - N/A   Clear
6:53 PM 64.9 °F 21.0 °F 19% 30.16 in 10.0 mi WNW 6.9 mph - N/A   Clear
7:53 PM 59.0 °F 17.1 °F 20% 30.17 in 10.0 mi Calm Calm - N/A   Clear
8:53 PM 59.0 °F 17.1 °F 20% 30.18 in 10.0 mi WSW 8.1 mph - N/A   Clear
9:53 PM 59.0 °F 17.1 °F 20% 30.19 in 10.0 mi WSW 4.6 mph - N/A   Clear
10:53 PM 55.9 °F 15.1 °F 20% 30.20 in 10.0 mi Calm Calm - N/A   Clear
11:53 PM 57.0 °F 14.0 °F 18% 30.20 in 10.0 mi West 5.8 mph - N/A   Clear